SCP
0 0 0 0 0 0 0 0 0 0 0 0 0 0 0 0 0 0 0 0 0 0 0 0 0 0 0 0 0 0 0 0 0 0 0 0 0 0 0 0 0 0 0 0 0 0 0 0 0
0 0 0 0 0 0 0 0 0 0 0 0 0 0 0 0 0 0 0 0 0 0 0 0 0 0 0 0 0 0 0 0 0 0 0 0 0 0 0 0 0 0 0 0 0 0 0 0 0
0 0 0 0 0 0 0 0 0 0 0 0 0 0 0 0 0 0 0 0 0 0 0 0 0 0 0 0 0 0 0 0 0 0 0 0 0 0 0 0 0 0 0 0 0 0 0 0 0
0 0 0 0 0 0 0 0 0 0 0 0 0 0 0 0 0 0 0 0 0 0 0 0 0 0 0 0 0 0 0 0 0 0 0 0 0 0 0 0 0 0 0 0 0 0 0 0 0
0 0 0 0 0 0 0 0 0 0 0 0 0 0 0 0 0 0 0 0 0 0 0 0 0 0 0 0 0 0 0 0 0 0 0 0 0 0 0 0 0 0 0 0 0 0 0 0 0
0 0 0 0 0 0 0 0 0 0 0 0 0 0 0 0 0 0 0 0 0 0 0 0 0 0 0 0 0 0 0 0 0 0 0 0 0 0 0 0 0 0 0 0 0 0 0 0 0
0 0 0 0 0 0 0 0 0 0 0 0 0 0 0 0 0 0 0 0 0 0 0 0 0 0 0 0 0 0 0 0 0 0 0 0 0 0 0 0 0 0 0 0 0 0 0 0 0
0 0 0 0 0 0 0 0 0 0 0 0 0 0 0 0 0 0 0 0 0 0 0 0 0 0 0 0 0 0 0 0 0 0 0 0 0 0 0 0 0 0 0 0 0 0 0 0 0
0 0 0 0 0 0 0 0 0 0 0 0 0 0 0 0 0 0 0 0 0 0 0 0 0 0 0 0 0 0 0 0 0 0 0 0 0 0 0 0 0 0 0 0 0 0 0 0 0
0 0 0 0 0 0 0 0 0 0 0 0 0 0 0 0 0 0 0 0 0 0 0 0 0 0 0 0 0 0 0 0 0 0 0 0 0 0 0 0 0 0 0 0 0 0 0 0 0
0 0 0 0 0 0 0 0 0 0 0 0 0 0 0 0 0 0 0 0 0 0 0 0 0 0 0 0 0 0 0 0 0 0 0 0 0 0 0 0 0 0 0 0 0 0 0 0 0
0 0 0 0 0 0 0 0 0 0 0 0 0 0 0 0 0 0 0 0 0 0 0 0 0 0 0 0 0 0 0 0 0 0 0 0 0 0 0 0 0 0 0 0 0 0 0 0 0
0 0 0 0 0 0 0 0 0 0 0 0 0 0 0 0 0 0 0 0 0 0 0 0 0 0 0 0 0 0 0 0 0 0 0 0 0 0 0 0 0 0 0 0 0 0 0 0 0
0 0 0 0 0 0 0 0 0 0 0 0 0 0 0 0 0 0 0 0 0 0 0 0 0 0 0 0 0 0 0 0 0 0 0 0 0 0 0 0 0 0 0 0 0 0 0 0 0
0 0 0 0 0 0 0 0 0 0 0 0 0 0 0 0 0 0 0 0 0 0 0 0 0 0 0 0 0 0 0 0 0 0 0 0 0 0 0 0 0 0 0 0 0 0 0 0 0
0 0 0 0 0 0 0 0 0 0 0 0 0 0 0 0 0 0 0 0 0 0 0 0 1 1 0 0 0 0 0 0 0 0 0 0 0 0 0 0 0 0 0 0 0 0 0 0 0
0 0 0 0 0 0 0 0 0 0 0 0 0 0 0 0 0 0 0 0 0 0 0 0 1 1 1 1 0 0 0 0 0 0 0 0 0 0 0 0 0 0 0 0 0 0 0 0 0
0 0 0 0 0 0 0 0 0 0 0 0 0 0 0 0 0 0 0 0 0 0 0 0 1 1 1 1 0 0 0 0 0 0 0 0 0 0 0 0 0 0 0 0 0 0 0 0 0
0 0 0 0 0 0 0 0 0 0 0 0 0 0 0 0 0 0 0 0 0 0 0 0 0 1 1 1 1 0 0 0 0 0 0 0 0 0 0 0 0 0 0 0 0 0 0 0 0
0 0 0 0 0 0 0 0 0 0 0 0 0 0 0 0 0 0 0 0 0 0 0 0 0 1 1 2 1 1 0 0 0 0 0 0 0 0 0 0 0 0 0 0 0 0 0 0 0
0 0 0 0 0 0 0 0 0 0 0 0 0 0 0 0 0 0 0 0 0 0 0 0 0 1 1 2 2 2 1 1 0 0 0 0 0 0 0 0 0 0 0 0 0 0 0 0 0
0 0 0 0 0 0 0 0 0 0 0 0 0 0 0 0 0 0 0 0 0 0 0 0 0 0 1 2 3 3 2 1 1 0 0 0 0 0 0 0 0 0 0 0 0 0 0 0 0
0 0 0 0 0 0 0 0 0 0 0 0 0 0 0 0 0 0 0 0 0 0 0 0 0 0 1 2 3 3 3 3 2 1 0 0 0 0 0 0 0 0 0 0 0 0 0 0 0
0 0 0 0 0 0 0 0 0 0 0 0 0 0 0 0 0 0 0 0 0 0 0 0 0 0 0 1 3 4 4 3 3 2 1 1 0 0 0 0 0 0 0 0 0 0 0 0 0
0 0 0 0 0 0 0 0 0 0 0 0 0 0 0 0 0 0 0 0 0 0 0 0 0 0 0 1 2 3 4 4 4 3 2 2 1 0 0 0 0 0 0 0 0 0 0 0 0
0 0 0 0 0 0 0 0 0 0 0 0 0 0 0 0 0 0 0 0 0 0 0 0 0 0 0 0 1 1 2 3 4 4 3 3 2 1 0 0 0 0 0 0 0 0 0 0 0
0 0 0 0 0 0 0 0 0 0 0 0 0 0 0 0 0 0 0 0 0 0 0 0 0 0 0 0 0 1 1 2 3 3 4 4 3 2 1 0 0 0 0 0 0 1 1 1 0
1 1 1 0 0 0 0 0 0 0 0 0 0 0 0 0 0 0 0 0 0 0 0 0 0 0 1 1 1 0 0 1 1 2 3 4 4 3 2 1 0 0 0 0 0 1 1 1 1
1 1 1 1 0 0 0 0 0 0 0 0 0 0 0 0 0 0 0 0 0 0 0 0 0 0 1 1 1 0 0 0 0 1 2 3 3 3 3 1 0 0 0 0 0 0 1 1 1
0 1 1 0 0 0 0 0 0 0 0 0 0 0 0 0 0 0 0 0 0 0 0 0 0 0 0 1 1 0 0 0 0 0 1 2 3 4 3 2 1 0 0 0 0 0 0 1 1
Wind_Speed
15 10 2 4 7 6 1 1 3 2 2 1 4 8 7 4 2 3 2 9 12 10 8 9 11 13 13 13 13 13 13 13 13 13 14 14 14 14 14 14 15 15 15 16 15 15 15 14 14
8 5 5 6 6 2 2 1 2 2 4 3 5 6 6 3 2 6 5 9 13 11 9 9 11 13 14 13 13 12 13 13 13 13 13 13 13 13 13 14 14 14 15 15 14 14 13 12 12
8 3 4 5 3 3 2 2 4 2 2 3 4 4 5 4 4 5 7 12 11 9 8 9 12 13 14 13 13 12 12 12 13 13 13 13 13 13 13 13 13 14 14 14 13 13 12 11 10
4 5 5 4 1 3 5 5 4 4 2 3 5 4 2 1 4 6 12 12 11 9 8 9 12 13 13 13 13 12 12 12 12 13 13 13 13 13 12 12 13 13 13 13 12 12 10 9 9
4 5 4 2 3 3 2 5 5 5 3 3 5 5 1 4 4 11 12 12 12 9 8 9 11 12 12 13 13 12 12 12 12 12 12 12 12 12 12 12 12 12 12 12 11 10 9 8 7
5 5 3 1 3 3 2 3 4 4 3 3 5 5 2 0 6 9 10 10 10 10 8 8 11 11 11 12 11 11 11 12 12 12 12 12 12 12 12 12 12 12 12 11 10 9 7 6 6
4 3 2 2 2 3 3 2 4 5 4 3 6 6 2 3 5 7 9 9 9 9 8 7 7 9 10 11 11 10 10 10 10 11 11 10 10 11 10 10 11 12 11 10 9 8 6 4 4
3 4 1 2 2 3 3 1 1 5 3 2 5 9 7 7 6 7 8 8 8 8 8 7 7 6 7 7 10 11 10 10 10 10 10 10 10 9 9 8 10 11 10 10 9 7 5 3 2
3 4 3 4 4 3 2 2 3 1 4 3 3 4 5 10 9 8 6 5 7 8 7 8 7 7 6 6 9 9 10 10 10 9 10 8 5 5 6 7 9 9 10 10 9 7 5 2 0
3 4 7 4 3 2 2 1 1 2 3 2 3 3 6 10 10 10 8 9 10 10 9 8 8 8 7 6 6 5 5 6 6 5 6 4 4 4 5 7 8 9 9 9 9 7 5 2 1
5 7 5 4 2 1 1 2 1 2 2 4 5 7 9 8 9 9 9 8 9 9 9 9 9 9 8 6 5 4 3 4 5 6 6 5 4 3 3 3 4 5 6 4 5 4 2 2 2
4 5 4 3 2 1 2 1 1 2 5 4 6 12 11 12 13 13 12 9 8 8 9 9 10 9 9 8 6 6 5 5 5 6 7 5 4 4 4 3 4 3 3 3 3 2 3 3 4
5 4 4 4 3 3 2 3 3 5 6 2 5 9 12 13 12 10 9 8 8 10 11 10 10 10 10 9 7 7 7 7 7 6 7 7 6 6 5 4 4 4 4 4 4 4 4 4 4
5 4 4 4 4 3 4 5 3 8 4 2 6 10 11 13 13 10 9 10 11 12 12 11 11 11 10 9 8 8 8 7 7 7 8 9 7 7 6 6 6 5 5 5 5 5 5 4 4
2 2 5 5 5 4 3 7 9 9 4 5 7 9 11 12 11 13 14 14 14 12 12 12 12 11 12 11 10 8 7 7 7 7 9 10 8 8 7 7 6 6 6 6 5 5 4 4 4
3 4 6 6 6 6 7 13 10 7 6 8 9 9 10 11 12 14 14 14 13 11 12 13 11 12 13 11 10 7 7 8 7 7 8 10 10 9 8 7 7 6 6 6 5 5 5 5 5
6 8 8 5 7 6 9 10 9 8 8 9 9 9 10 10 11 12 13 14 14 14 13 14 13 14 13 12 9 8 7 8 7 7 8 9 11 10 9 8 7 7 6 6 6 6 5 5 6
9 8 7 10 6 8 10 11 8 7 8 10 9 9 9 10 13 12 12 13 13 13 13 14 14 14 12 9 7 6 7 8 7 8 9 10 10 11 10 7 8 8 7 7 6 6 6 5 5
8 8 9 7 5 7 12 14 12 10 8 10 10 10 11 12 12 10 11 11 11 11 13 14 15 14 11 9 9 10 11 9 8 8 10 11 10 11 10 8 8 9 9 9 9 6 7 6 3
9 10 8 4 4 6 8 14 12 12 12 12 13 12 12 11 10 10 10 10 11 13 14 14 15 14 14 12 10 7 7 6 7 6 8 11 11 12 11 11 9 9 9 9 10 9 6 5 5
15 15 10 5 2 3 4 11 12 11 11 12 12 12 12 13 13 11 10 11 11 12 14 13 15 15 15 13 7 4 4 3 5 8 10 12 12 12 12 13 11 10 10 11 12 11 11 9 7
18 12 9 8 5 6 6 10 9 11 12 14 14 13 14 13 13 12 10 10 11 13 12 13 14 14 14 13 10 12 12 13 13 10 9 10 12 13 13 13 13 12 11 12 11 11 10 10 8
5 7 10 10 8 8 7 10 9 7 13 14 15 15 14 14 13 13 11 11 11 11 10 11 12 12 12 13 14 14 14 12 8 7 8 9 10 12 14 14 13 13 12 13 12 11 12 11 11
6 5 4 5 7 16 15 12 11 10 14 10 12 13 13 12 11 11 10 8 8 8 8 8 9 11 11 13 14 15 16 14 10 9 10 10 9 10 13 14 14 14 13 13 14 13 14 13 13
9 8 6 8 10 12 10 12 14 9 10 12 13 13 13 11 10 9 8 6 6 5 6 7 8 9 9 11 12 14 15 15 15 13 12 10 9 10 13 13 14 14 15 14 13 13 14 15 14
17 15 12 9 8 5 7 14 11 8 9 10 10 10 8 8 7 7 7 6 5 5 5 5 6 7 7 8 10 11 12 11 10 12 10 10 10 10 10 12 13 14 14 14 13 13 14 13 15
12 14 10 4 2 4 8 8 9 5 7 9 8 7 7 7 5 5 4 3 3 2 3 4 5 5 5 6 7 8 10 10 11 11 11 10 9 8 10 11 13 14 14 14 14 13 14 14 15
10 9 7 9 9 10 8 8 8 6 9 8 8 8 7 5 3 2 1 1 0 1 1 1 2 4 4 4 5 5 7 9 10 9 10 10 10 10 10 11 12 13 14 14 14 13 13 15 15
11 12 9 7 6 7 7 9 7 9 10 10 10 8 7 5 3 2 1 1 1 2 2 2 1 1 2 2 4 4 5 6 7 8 9 10 9 10 11 11 12 12 13 13 14 15 14 16 16
12 14 15 12 9 7 7 10 4 6 6 6 5 5 4 3 2 2 2 2 3 3 3 3 2 2 2 3 3 4 5 5 6 7 8 8 9 9 10 10 11 12 12 12 14 15 15 16 17
Wind_Direction
324 323 4 48 50 48 43 289 158 123 80 76 86 94 100 101 130 151 124 137 134 141 145 142 141 138 135 134 132 130 128 124 121 118 115 113 109 108 107 107 105 103 101 100 99 99 98 96 93
320 334 34 52 75 57 302 273 121 137 159 133 87 93 88 83 100 117 124 144 139 142 144 142 140 139 138 137 136 134 132 130 127 123 121 118 115 114 114 111 111 109 106 105 104 103 102 98 91
328 21 61 62 94 169 196 211 157 156 145 99 76 70 107 144 143 147 152 144 135 138 140 143 142 143 142 140 139 137 137 135 132 129 126 124 121 120 118 117 116 114 111 109 108 107 106 98 87
10 26 48 66 294 238 188 199 169 138 93 81 99 76 64 124 174 149 141 140 135 137 140 146 145 146 146 145 143 142 141 140 138 135 131 129 127 126 124 122 121 118 117 116 113 111 107 99 88
45 58 48 18 285 278 208 189 162 143 149 119 108 107 63 341 122 130 139 139 139 140 143 150 148 148 149 149 148 147 145 144 143 140 137 135 135 133 131 128 127 125 122 120 118 115 111 102 87
42 59 83 260 281 290 257 207 150 139 154 126 112 116 149 140 126 138 139 139 142 145 147 151 151 152 152 153 152 151 150 149 148 147 145 142 142 142 139 136 134 133 130 128 125 123 118 105 86
94 96 167 224 266 278 252 201 148 146 152 165 132 120 154 195 162 143 136 136 141 146 148 151 155 156 156 155 154 153 153 153 152 150 147 144 145 146 143 142 142 142 140 137 135 133 131 119 90
125 110 185 230 226 261 282 2 129 140 166 132 120 144 181 197 167 134 129 137 145 151 155 158 159 157 156 157 158 156 157 157 154 150 147 147 146 146 146 148 151 151 149 147 147 148 150 143 99
90 99 205 219 206 251 316 26 351 43 103 64 60 163 187 150 143 132 131 142 157 164 167 166 167 165 162 161 164 160 160 161 156 154 153 148 145 147 150 158 158 157 156 158 161 165 168 164 36
116 175 215 218 196 218 316 351 314 48 73 71 45 41 118 140 153 161 169 173 176 179 178 175 175 174 170 171 163 163 164 163 160 159 160 156 155 161 162 169 167 165 165 169 175 178 177 173 293
176 198 219 243 235 214 309 323 320 128 192 192 179 167 154 160 171 182 188 186 186 184 183 182 181 180 177 174 170 172 169 169 171 171 172 167 163 165 164 164 168 169 171 172 183 180 185 209 229
203 227 211 223 248 209 220 271 309 206 220 229 188 166 167 177 188 194 196 195 188 188 193 189 184 183 184 179 179 180 179 181 184 185 182 174 173 176 177 178 177 175 175 180 184 190 207 224 230
218 235 241 234 233 228 221 227 241 253 254 246 155 163 181 191 200 205 204 201 195 198 198 195 188 187 186 184 186 187 189 190 191 190 191 185 182 185 185 188 187 188 184 187 193 203 212 219 226
217 228 248 245 238 234 226 252 225 248 248 187 172 191 200 202 204 205 207 208 206 206 204 197 194 191 187 190 192 191 192 193 193 196 197 193 190 188 188 192 194 197 196 196 199 205 210 218 220
183 237 275 249 226 225 208 259 232 237 237 232 221 215 216 218 211 210 210 210 209 207 204 200 199 193 193 195 196 194 193 192 197 199 199 199 196 193 192 195 200 203 200 199 203 211 212 218 222
156 200 235 236 205 210 189 245 244 232 220 236 236 232 226 226 221 220 216 215 211 206 203 203 200 197 199 198 197 196 195 197 201 199 200 202 201 197 195 200 205 202 199 200 203 205 209 219 221
192 213 219 229 211 198 200 240 245 228 215 234 238 236 234 235 234 228 221 216 212 208 205 202 201 201 201 199 197 197 197 202 203 202 205 206 204 201 201 206 206 198 201 206 208 207 203 213 222
193 198 206 211 211 200 221 240 250 241 221 232 238 239 240 238 238 231 224 220 215 210 207 205 203 204 200 196 194 199 205 208 206 207 208 206 208 206 206 210 207 200 204 210 209 210 209 212 213
182 190 209 214 206 205 231 242 244 245 238 239 243 241 242 244 245 237 228 222 215 210 207 206 204 203 195 194 199 204 213 211 210 212 210 207 209 207 209 214 209 207 213 215 210 207 213 219 190
211 214 217 237 217 215 245 253 245 239 235 231 235 238 240 246 253 244 233 224 216 212 209 208 208 203 200 203 202 203 203 209 213 213 214 212 212 210 212 215 215 212 217 217 214 209 213 215 186
217 218 212 213 263 259 277 270 244 242 239 237 236 237 237 237 241 242 234 225 218 216 213 211 209 207 204 203 193 188 186 202 208 215 218 217 214 214 216 217 217 216 217 222 219 214 215 221 210
225 211 205 209 210 238 210 266 248 231 241 239 237 237 238 238 238 238 233 227 219 219 215 212 210 208 205 199 195 197 205 215 219 217 217 213 212 216 218 219 219 220 220 224 222 217 219 218 222
207 178 197 209 218 241 220 253 264 211 233 237 235 235 237 238 235 234 231 226 223 218 213 211 209 209 205 200 202 205 215 223 225 215 217 217 215 217 219 220 221 223 224 225 223 218 218 219 224
160 143 186 206 218 240 223 228 260 206 218 228 231 233 235 237 235 235 235 232 230 221 212 209 206 210 206 203 206 209 216 221 220 217 220 221 221 221 221 221 222 224 226 226 225 223 222 224 226
174 171 201 211 218 238 192 214 249 215 209 214 224 230 232 233 232 232 233 230 226 218 213 210 208 214 210 206 209 213 218 221 223 223 224 224 224 224 223 220 224 226 228 228 226 225 227 226 226
196 191 200 206 212 236 190 224 247 218 216 218 221 222 226 232 229 226 226 223 220 213 205 201 204 215 212 210 215 218 220 222 227 227 226 225 227 229 226 221 225 227 227 228 226 228 229 228 229
189 207 208 206 210 233 230 254 287 235 226 224 220 220 224 228 224 220 217 210 209 198 197 199 204 213 217 219 224 225 224 225 229 230 228 231 232 231 227 225 226 227 227 227 227 230 230 229 231
189 169 170 203 213 231 238 233 236 213 217 219 218 217 223 216 208 210 200 173 149 153 201 195 199 213 223 228 232 241 239 235 235 234 234 234 235 232 231 228 228 229 228 227 227 231 232 232 232
182 189 194 198 200 206 237 248 218 208 210 208 211 208 204 200 197 170 135 97 68 51 45 34 357 285 274 258 253 257 257 255 251 245 243 242 243 238 235 233 232 231 230 228 229 232 231 232 235
197 199 196 205 213 206 231 255 226 196 204 201 200 198 189 174 149 129 107 70 52 42 30 20 12 354 319 295 278 268 270 270 266 262 258 254 252 247 242 240 237 236 235 232 232 235 234 235 236